{"data":{"norad_id":54746,"intl_designator":"2022-171A","name":"YAOGAN-36 04A","alt_names":[],"object_type":"PAYLOAD","status":"ACTIVE","operator":null,"country":"PRC","launch_date":"2022-12-14","launch_site_code":"XICLF","launch_vehicle":null,"mission":null,"orbit_class":"UNKNOWN","rcs_meters":null,"size_class":null,"mass_kg":null,"dimensions":null,"purposes":[],"wikipedia_slug":null,"has_3d_model":false,"image_url":null,"decayed_at":null,"tle_current":{"epoch":"2026-09-21T15:15:30.260160Z","epoch_age_seconds":64192,"freshness":"FRESH","line1":"1 54746U 22171A   26264.63576690  .00004277  00000+0  18428-3 0  9996","line2":"2 54746  34.9910 336.2082 0006634  83.5056 276.6414 15.21992569209824","mean_motion":15.21992569,"eccentricity":0.0006634,"inclination_deg":34.991,"raan_deg":336.2082,"arg_perigee_deg":83.5056,"mean_anomaly_deg":276.6414,"bstar":0.00018428,"rev_number":20982,"period_min":94.612814105008,"perigee_km":495.26819371045,"apogee_km":504.39388170288,"semimajor_km":6877.9680377067,"source":"CELESTRAK","updated_at":"2026-09-22T09:00:25.188909Z"}}}